This demonstration page uses our WeatherBlox Daily Observations layout. Learn more.

Left ArrowRight Arrow

Hourly Observations for November 13, 2020

Temp ( °F °C ) Dew Point ( °F °C ) Humidity (%) Winds ( mph kmh ) Pressure ( in mb ) Visibility ( mi km ) Precip ( " mm )
12:51 am 00:51 Clear 41 5 21 -6.1 45 45 Calm 30.03 1017 10 16 0.00 0.00
1:51 am 01:51 Clear 39 3.9 20 -6.7 46 46 SE 5 7 30.03 1017 10 16 0.00 0.00
2:51 am 02:51 Clear 39 3.9 20 -6.7 46 46 ESE 3 6 30.02 1017 10 16 0.00 0.00
3:51 am 03:51 Clear 41 5 21 -6.1 45 45 SE 3 6 30.02 1017 10 16 0.00 0.00
4:51 am 04:51 Clear 41 5 22 -5.6 47 47 ESE 5 7 30.02 1017 10 16 0.00 0.00
5:51 am 05:51 Clear 41 5 22 -5.6 47 47 ESE 3 6 30.04 1017 10 16 0.00 0.00
6:51 am 06:51 Sunny 40 4.4 21 -6.1 47 47 E 3 6 30.07 1018 10 16 0.00 0.00
7:51 am 07:51 Sunny 42 5.6 21 -6.1 43 43 Calm 30.09 1019 10 16 0.00 0.00
8:51 am 08:51 Sunny 47 8.3 23 -5 39 39 Calm 30.09 1019 10 16 0.00 0.00
9:51 am 09:51 Sunny 58 14.4 26 -3.3 29 29 VRB 3 6 30.09 1019 10 16 0.00 0.00
10:51 am 10:51 Sunny 61 16.1 26 -3.3 26 26 NW 5 7 30.07 1018 10 16 0.00 0.00
11:51 am 11:51 Sunny 63 17.2 25 -3.9 24 24 NW 6 9 30.04 1017 10 16 0.00 0.00
12:51 pm 12:51 Sunny 63 17.2 25 -3.9 24 24 WNW 7 11 30.02 1017 10 16 0.00 0.00
1:51 pm 13:51 Sunny 65 18.3 26 -3.3 23 23 WNW 8 13 29.99 1016 10 16 0.00 0.00
2:51 pm 14:51 Sunny 68 20 25 -3.9 20 20 NW 7 11 29.97 1015 10 16 0.00 0.00
3:51 pm 15:51 Sunny 69 20.6 25 -3.9 19 19 WNW 6 9 29.95 1014 10 16 0.00 0.00
4:51 pm 16:51 Sunny 67 19.4 25 -3.9 20 20 WNW 7 11 29.96 1014 10 16 0.00 0.00
5:51 pm 17:51 Clear 59 15 24 -4.4 26 26 WNW 6 9 29.97 1015 10 16 0.00 0.00
6:51 pm 18:51 Clear 57 13.9 25 -3.9 29 29 NNW 8 13 30.01 1016 10 16 0.00 0.00
7:51 pm 19:51 Clear 55 12.8 24 -4.4 30 30 NNW 6 9 30.01 1016 10 16 0.00 0.00
8:51 pm 20:51 Clear 50 10 23 -5 35 35 SE 3 6 30.01 1016 10 16 0.00 0.00
9:51 pm 21:51 Clear 48 8.9 23 -5 37 37 Calm 30.00 1016 10 16 0.00 0.00
10:51 pm 22:51 Clear 47 8.3 24 -4.4 41 41 E 3 6 30.01 1016 10 16 0.00 0.00
11:51 pm 23:51 Clear 47 8.3 24 -4.4 41 41 SE 6 9 29.99 1016 10 16 0.00 0.00

Powered by AerisWeather